Flag for U.S.A. Weather past 2 weeks in Fresno, California, U.S.A.

Now
78 °F

Clear.


Feels Like: 78 °F
Forecast: 60 / 82 °F
Wind: 12 mph from Northwest

Location: Fresno Air Terminal


UV Index: 5 (Moderate)

Visibility: 10 mi


Pressure: 29.75 "Hg

Humidity: 33%

Dew point: 47 °F

Location of FresnoLocation

Historic Weather in Fresno

°F

Fresno temperature yesterday

Maximum temperature yesterday: 87 °F (at 3:53 PM)
Minimum temperature yesterday: 57 °F (at 6:53 AM)
Average temperature yesterday: 72 °F

Past Weeks' High & Low Weather Summary

 TemperatureHumidityPressure
High91 °F (Apr 8, 3:53 PM)90% (Apr 5, 5:53 AM)30.22 "Hg (Apr 5, 5:53 AM)
Low46 °F (Apr 3, 4:53 AM)9% (Apr 15, 4:53 PM)29.73 "Hg (Apr 17, 6:53 PM)
Average69 °F48%29.97 "Hg
* Reported Apr 2 7:53 PM — Apr 17 7:53 PM, Fresno, Weather by CustomWeather, © 2014

Note: Actual official high and low records may vary slightly from our data, if they occured in-between our weather recording intervals... More about our weather records

Advertising

Historic Weather Conditions — Data for Previous 24 hours

 ConditionsComfort  
Time TempWeatherWind HumidityBarometerVisibility
7:53 PM
Apr 17
80 °FPartly sunny.7 mph29%29.73 "Hg10 mi
6:53 PM83 °FPartly sunny.13 mph26%29.73 "Hg10 mi
5:53 PM85 °FPartly sunny.5 mph20%29.73 "Hg10 mi
4:53 PM87 °FMore clouds than sun.8 mph19%29.74 "Hg10 mi
3:53 PM87 °FPartly sunny.3 mph19%29.75 "Hg10 mi
2:53 PM87 °FOvercast.No wind21%29.78 "Hg10 mi
1:53 PM85 °FOvercast.3 mph22%29.80 "Hg10 mi
12:53 PM84 °FOvercast.5 mph24%29.81 "Hg10 mi
11:53 AM80 °FOvercast.3 mph29%29.83 "Hg10 mi
10:53 AM76 °FOvercast.5 mph35%29.84 "Hg10 mi
9:53 AM72 °FPartly sunny.7 mph41%29.83 "Hg10 mi
8:53 AM68 °FPartly sunny.6 mph49%29.82 "Hg9 mi
7:53 AM64 °FPartly sunny.8 mph52%29.81 "Hg10 mi
6:53 AM60 °FPassing clouds.5 mph60%29.80 "Hg10 mi
5:53 AM60 °FPassing clouds.No wind62%29.78 "Hg10 mi
4:53 AM60 °FPassing clouds.No wind60%29.77 "Hg10 mi
3:53 AM61 °FClear.3 mph60%29.77 "Hg10 mi
2:53 AM63 °FClear.5 mph54%29.79 "Hg10 mi
1:53 AM65 °FPassing clouds.3 mph51%29.80 "Hg10 mi
12:53 AM66 °FPassing clouds.8 mph47%29.81 "Hg10 mi
11:53 PM
Apr 16
68 °FPassing clouds.6 mph42%29.81 "Hg10 mi
10:53 PM70 °FPassing clouds.7 mph39%29.80 "Hg10 mi
9:53 PM74 °FPassing clouds.10 mph33%29.79 "Hg10 mi
Weather by CustomWeather, © 2014

See weather overview